| time (UTC) | temp C | wind direction | speed KPH | gust KPH | rain 1hr cm | rain 24hr cm | rain mn cm | humidity % | barometer mb |
| 20260507060221 | 7 | 22 | 0.0 | 0.0 | 0.00 | 0.00 | 0.00 | 84 | 1020.4 |
| 20260507055717 | 7 | 22 | 0.0 | 0.0 | 0.00 | 0.00 | 0.00 | 83 | 1020.3 |
| 20260507055212 | 7 | 22 | 0.0 | 0.0 | 0.00 | 0.00 | 0.00 | 82 | 1020.1 |
| 20260507054709 | 8 | 22 | 0.0 | 0.0 | 0.00 | 0.00 | 0.00 | 81 | 1020.0 |
| 20260507054206 | 8 | 22 | 0.0 | 0.0 | 0.00 | 0.00 | 0.00 | 80 | 1020.4 |
| 20260507053704 | 9 | 22 | 0.0 | 0.0 | 0.00 | 0.00 | 0.00 | 77 | 1020.3 |
| 20260507053202 | 9 | 21 | 0.0 | 0.0 | 0.00 | 0.00 | 0.00 | 78 | 1020.4 |
| 20260507052700 | 9 | 21 | 0.0 | 0.0 | 0.00 | 0.00 | 0.00 | 77 | 1020.1 |
| 20260507052155 | 9 | 22 | 0.0 | 0.0 | 0.00 | 0.00 | 0.00 | 76 | 1019.9 |
| 20260507051653 | 10 | 22 | 0.0 | 0.0 | 0.00 | 0.00 | 0.00 | 75 | 1020.0 |
| 20260507051149 | 10 | 22 | 0.0 | 0.0 | 0.00 | 0.00 | 0.00 | 73 | 1019.8 |
| 20260507050647 | 9 | 22 | 0.0 | 0.0 | 0.00 | 0.00 | 0.00 | 72 | 1019.9 |
| 20260507050144 | 9 | 22 | 0.0 | 0.0 | 0.00 | 0.00 | 0.00 | 72 | 1020.0 |
| 20260507045641 | 9 | 22 | 0.0 | 0.0 | 0.00 | 0.00 | 0.00 | 71 | 1020.0 |
| 20260507045137 | 10 | 21 | 0.0 | 0.0 | 0.00 | 0.00 | 0.00 | 69 | 1019.7 |
| 20260507044634 | 10 | 36 | 0.0 | 0.0 | 0.00 | 0.00 | 0.00 | 68 | 1019.7 |
| 20260507044131 | 10 | 38 | 0.0 | 0.0 | 0.00 | 0.00 | 0.00 | 68 | 1019.6 |
| 20260507043627 | 10 | 32 | 0.0 | 0.0 | 0.00 | 0.00 | 0.00 | 67 | 1019.4 |
| 20260507043124 | 10 | 38 | 0.0 | 1.6 | 0.00 | 0.00 | 0.00 | 66 | 1019.4 |
| 20260507042620 | 10 | 55 | 0.0 | 1.6 | 0.00 | 0.00 | 0.00 | 67 | 1019.1 |
| 20260507042115 | 10 | 57 | 0.0 | 0.0 | 0.00 | 0.00 | 0.00 | 66 | 1019.2 |
| 20260507041613 | 11 | 47 | 0.0 | 1.6 | 0.00 | 0.00 | 0.00 | 65 | 1019.1 |
| 20260507041109 | 11 | 42 | 0.0 | 1.6 | 0.00 | 0.00 | 0.00 | 66 | 1019.0 |
| 20260507040607 | 10 | 55 | 1.6 | 4.8 | 0.00 | 0.00 | 0.00 | 66 | 1018.9 |
| 20260507035558 | 10 | 56 | 0.0 | 0.0 | 0.00 | 0.00 | 0.00 | 68 | 1018.8 |
| 20260507035055 | 10 | 54 | 0.0 | 0.0 | 0.00 | 0.00 | 0.00 | 67 | 1019.2 |
| 20260507034552 | 11 | 53 | 0.0 | 0.0 | 0.00 | 0.00 | 0.00 | 66 | 1019.2 |
| 20260507034050 | 11 | 54 | 0.0 | 0.0 | 0.00 | 0.00 | 0.00 | 66 | 1019.1 |
| 20260507033548 | 11 | 53 | 0.0 | 0.0 | 0.00 | 0.00 | 0.00 | 66 | 1019.2 |
| 20260507033044 | 11 | 49 | 0.0 | 3.2 | 0.00 | 0.00 | 0.00 | 65 | 1019.0 |
| 20260507032541 | 11 | 52 | 0.0 | 0.0 | 0.00 | 0.00 | 0.00 | 66 | 1019.0 |
| 20260507032037 | 11 | 52 | 0.0 | 0.0 | 0.00 | 0.00 | 0.00 | 66 | 1019.0 |
| 20260507031534 | 11 | 40 | 0.0 | 1.6 | 0.00 | 0.00 | 0.00 | 66 | 1018.8 |
| 20260507031031 | 11 | 51 | 0.0 | 1.6 | 0.00 | 0.00 | 0.00 | 67 | 1018.8 |
| 20260507030528 | 11 | 43 | 0.0 | 1.6 | 0.00 | 0.00 | 0.00 | 68 | 1018.8 |
| 20260507030026 | 11 | 29 | 0.0 | 0.0 | 0.00 | 0.00 | 0.00 | 67 | 1018.9 |
| 20260507025523 | 11 | 29 | 0.0 | 0.0 | 0.00 | 0.00 | 0.00 | 67 | 1018.6 |
| 20260507025020 | 11 | 20 | 0.0 | 0.0 | 0.00 | 0.00 | 0.00 | 67 | 1018.7 |
| 20260507024518 | 11 | 19 | 0.0 | 0.0 | 0.00 | 0.00 | 0.00 | 66 | 1018.5 |
| 20260507024014 | 11 | 16 | 0.0 | 0.0 | 0.00 | 0.00 | 0.00 | 65 | 1018.3 |
| 20260507023510 | 11 | 14 | 0.0 | 0.0 | 0.00 | 0.00 | 0.00 | 66 | 1018.5 |
| 20260507023008 | 11 | 14 | 0.0 | 0.0 | 0.00 | 0.00 | 0.00 | 65 | 1018.3 |
| 20260507022505 | 11 | 14 | 0.0 | 0.0 | 0.00 | 0.00 | 0.00 | 64 | 1018.3 |
| 20260507022000 | 12 | 14 | 0.0 | 0.0 | 0.00 | 0.00 | 0.00 | 63 | 1018.1 |
| 20260507021455 | 12 | 14 | 0.0 | 0.0 | 0.00 | 0.00 | 0.00 | 62 | 1018.0 |
| 20260507020953 | 12 | 13 | 0.0 | 0.0 | 0.00 | 0.00 | 0.00 | 60 | 1018.0 |
| 20260507020450 | 13 | 24 | 0.0 | 0.0 | 0.00 | 0.00 | 0.00 | 59 | 1017.9 |
| 20260507015947 | 13 | 34 | 0.0 | 3.2 | 0.00 | 0.00 | 0.00 | 58 | 1017.9 |
| 20260507015445 | 13 | 54 | 0.0 | 3.2 | 0.00 | 0.00 | 0.00 | 58 | 1017.7 |
| 20260507014942 | 13 | 50 | 3.2 | 4.8 | 0.00 | 0.00 | 0.00 | 57 | 1017.7 |
| 20260507014438 | 13 | 38 | 0.0 | 4.8 | 0.00 | 0.00 | 0.00 | 56 | 1017.8 |
| 20260507013935 | 13 | 27 | 0.0 | 3.2 | 0.00 | 0.00 | 0.00 | 56 | 1017.6 |
| 20260507013431 | 14 | 10 | 0.0 | 4.8 | 0.00 | 0.00 | 0.00 | 55 | 1017.8 |
| 20260507012929 | 14 | 37 | 1.6 | 4.8 | 0.00 | 0.00 | 0.00 | 54 | 1017.6 |
| 20260507012426 | 15 | 15 | 3.2 | 6.4 | 0.00 | 0.00 | 0.00 | 53 | 1017.5 |
| 20260507011922 | 15 | 25 | 4.8 | 6.4 | 0.00 | 0.00 | 0.00 | 52 | 1017.4 |
| 20260507011420 | 15 | 34 | 3.2 | 11.3 | 0.00 | 0.00 | 0.00 | 52 | 1017.7 |
| 20260507010919 | 15 | 30 | 3.2 | 9.7 | 0.00 | 0.00 | 0.00 | 52 | 1017.6 |
| 20260507010415 | 15 | 19 | 3.2 | 9.7 | 0.00 | 0.00 | 0.00 | 52 | 1017.6 |
| 20260507005912 | 15 | 352 | 4.8 | 6.4 | 0.00 | 0.00 | 0.00 | 52 | 1017.5 |
| 20260507005409 | 15 | 38 | 0.0 | 4.8 | 0.00 | 0.00 | 0.00 | 52 | 1017.4 |
| 20260507004906 | 15 | 30 | 0.0 | 3.2 | 0.00 | 0.00 | 0.00 | 52 | 1017.5 |
| 20260507004403 | 15 | 47 | 0.0 | 11.3 | 0.00 | 0.00 | 0.00 | 52 | 1017.5 |
| 20260507003900 | 15 | 27 | 3.2 | 9.7 | 0.00 | 0.00 | 0.00 | 52 | 1017.7 |
| 20260507003355 | 15 | 38 | 1.6 | 11.3 | 0.00 | 0.00 | 0.00 | 52 | 1017.1 |
| 20260507002851 | 16 | 327 | 9.7 | 12.9 | 0.00 | 0.00 | 0.00 | 51 | 1017.2 |
| 20260507002347 | 16 | 16 | 3.2 | 11.3 | 0.00 | 0.00 | 0.00 | 50 | 1017.2 |
| 20260507001844 | 16 | 37 | 3.2 | 12.9 | 0.00 | 0.00 | 0.00 | 50 | 1017.1 |
| 20260507001341 | 16 | 356 | 4.8 | 11.3 | 0.00 | 0.00 | 0.00 | 50 | 1017.2 |
| 20260507000837 | 16 | 26 | 9.7 | 12.9 | 0.00 | 0.00 | 0.00 | 50 | 1017.1 |
| 20260507000333 | 16 | 24 | 1.6 | 9.7 | 0.00 | 0.00 | 0.00 | 51 | 1017.0 |
| 20260506235830 | 16 | 19 | 6.4 | 16.1 | 0.00 | 0.00 | 0.00 | 50 | 1016.8 |
| 20260506235326 | 16 | 13 | 6.4 | 9.7 | 0.00 | 0.00 | 0.00 | 51 | 1016.9 |
| 20260506234822 | 16 | 11 | 1.6 | 4.8 | 0.00 | 0.00 | 0.00 | 51 | 1016.8 |
| 20260506234320 | 16 | 347 | 1.6 | 4.8 | 0.00 | 0.00 | 0.00 | 51 | 1016.7 |
| 20260506233818 | 16 | 44 | 0.0 | 12.9 | 0.00 | 0.00 | 0.00 | 49 | 1016.6 |
| 20260506233313 | 16 | 341 | 0.0 | 4.8 | 0.00 | 0.00 | 0.00 | 51 | 1016.6 |
| 20260506232810 | 17 | 18 | 1.6 | 9.7 | 0.00 | 0.00 | 0.00 | 49 | 1016.6 |
| 20260506232306 | 17 | 343 | 4.8 | 6.4 | 0.00 | 0.00 | 0.00 | 49 | 1016.7 |
| 20260506231803 | 17 | 43 | 3.2 | 6.4 | 0.00 | 0.00 | 0.00 | 50 | 1016.5 |
| 20260506231301 | 16 | 37 | 3.2 | 12.9 | 0.00 | 0.00 | 0.00 | 50 | 1016.5 |
| 20260506230758 | 17 | 59 | 4.8 | 6.4 | 0.00 | 0.00 | 0.00 | 50 | 1016.4 |
| 20260506230255 | 17 | 346 | 1.6 | 9.7 | 0.00 | 0.00 | 0.00 | 48 | 1016.4 |
| 20260506225751 | 16 | 50 | 6.4 | 9.7 | 0.00 | 0.00 | 0.00 | 50 | 1016.4 |
| 20260506225248 | 17 | 330 | 9.7 | 12.9 | 0.00 | 0.00 | 0.00 | 49 | 1016.3 |
| 20260506224744 | 16 | 38 | 6.4 | 16.1 | 0.00 | 0.00 | 0.00 | 49 | 1016.2 |
| 20260506224242 | 16 | 343 | 6.4 | 12.9 | 0.00 | 0.00 | 0.00 | 49 | 1016.2 |
| 20260506223738 | 16 | 17 | 6.4 | 6.4 | 0.00 | 0.00 | 0.00 | 49 | 1016.1 |
| 20260506223234 | 17 | 6 | 4.8 | 14.5 | 0.00 | 0.00 | 0.00 | 49 | 1016.0 |
| 20260506222731 | 17 | 8 | 3.2 | 9.7 | 0.00 | 0.00 | 0.00 | 48 | 1015.9 |
| 20260506222226 | 17 | 344 | 6.4 | 14.5 | 0.00 | 0.00 | 0.00 | 48 | 1015.8 |
| 20260506221724 | 17 | 45 | 3.2 | 9.7 | 0.00 | 0.00 | 0.00 | 48 | 1015.9 |
| 20260506221222 | 17 | 45 | 0.0 | 9.7 | 0.00 | 0.00 | 0.00 | 50 | 1015.8 |
| 20260506220719 | 17 | 69 | 9.7 | 12.9 | 0.00 | 0.00 | 0.00 | 49 | 1015.9 |
| 20260506220214 | 17 | 31 | 3.2 | 11.3 | 0.00 | 0.00 | 0.00 | 49 | 1015.8 |
| 20260506215711 | 17 | 358 | 8.0 | 12.9 | 0.00 | 0.00 | 0.00 | 49 | 1015.8 |
| 20260506215207 | 16 | 332 | 12.9 | 16.1 | 0.00 | 0.00 | 0.00 | 49 | 1015.8 |
| 20260506214703 | 16 | 23 | 8.0 | 11.3 | 0.00 | 0.00 | 0.00 | 49 | 1016.0 |
| 20260506214201 | 17 | 358 | 9.7 | 16.1 | 0.00 | 0.00 | 0.00 | 48 | 1016.2 |
| 20260506213659 | 17 | 115 | 3.2 | 12.9 | 0.00 | 0.00 | 0.00 | 48 | 1016.2 |
| 20260506213156 | 16 | 32 | 4.8 | 12.9 | 0.00 | 0.00 | 0.00 | 49 | 1016.1 |
| 20260506212653 | 16 | 48 | 12.9 | 20.9 | 0.00 | 0.00 | 0.00 | 49 | 1016.2 |
| 20260506212148 | 16 | 23 | 4.8 | 12.9 | 0.00 | 0.00 | 0.00 | 51 | 1016.1 |
| 20260506211644 | 16 | 10 | 12.9 | 16.1 | 0.00 | 0.00 | 0.00 | 51 | 1016.3 |
| 20260506211141 | 17 | 47 | 11.3 | 17.7 | 0.00 | 0.00 | 0.00 | 50 | 1016.2 |
| 20260506210637 | 17 | 34 | 8.0 | 11.3 | 0.00 | 0.00 | 0.00 | 48 | 1016.2 |
| 20260506210134 | 17 | 30 | 1.6 | 6.4 | 0.00 | 0.00 | 0.00 | 48 | 1016.4 |
| 20260506205631 | 17 | 53 | 1.6 | 16.1 | 0.00 | 0.00 | 0.00 | 49 | 1016.3 |
| 20260506205126 | 17 | 11 | 9.7 | 14.5 | 0.00 | 0.00 | 0.00 | 50 | 1016.2 |
| 20260506204624 | 17 | 10 | 3.2 | 9.7 | 0.00 | 0.00 | 0.00 | 49 | 1016.5 |
| 20260506204121 | 16 | 40 | 3.2 | 6.4 | 0.00 | 0.00 | 0.00 | 51 | 1016.5 |
| 20260506203619 | 16 | 29 | 1.6 | 12.9 | 0.00 | 0.00 | 0.00 | 51 | 1016.6 |
| 20260506203115 | 16 | 359 | 4.8 | 16.1 | 0.00 | 0.00 | 0.00 | 52 | 1016.8 |
| 20260506202614 | 16 | 115 | 1.6 | 12.9 | 0.00 | 0.00 | 0.00 | 53 | 1016.5 |
| 20260506202109 | 16 | 55 | 3.2 | 16.1 | 0.00 | 0.00 | 0.00 | 53 | 1016.6 |
| 20260506201607 | 16 | 3 | 3.2 | 14.5 | 0.00 | 0.00 | 0.00 | 53 | 1016.6 |
| 20260506201103 | 16 | 22 | 3.2 | 16.1 | 0.00 | 0.00 | 0.00 | 52 | 1016.7 |
| 20260506200559 | 15 | 15 | 6.4 | 14.5 | 0.00 | 0.00 | 0.00 | 54 | 1016.7 |
| 20260506200056 | 16 | 9 | 12.9 | 16.1 | 0.00 | 0.00 | 0.00 | 54 | 1016.8 |
| 20260506195553 | 16 | 11 | 4.8 | 11.3 | 0.00 | 0.00 | 0.00 | 54 | 1016.9 |
| 20260506195049 | 15 | 21 | 1.6 | 11.3 | 0.00 | 0.00 | 0.00 | 57 | 1016.8 |
| 20260506194547 | 15 | 35 | 4.8 | 11.3 | 0.00 | 0.00 | 0.00 | 57 | 1016.9 |
| 20260506194043 | 15 | 359 | 1.6 | 9.7 | 0.00 | 0.00 | 0.00 | 56 | 1017.1 |
| 20260506193541 | 15 | 308 | 6.4 | 11.3 | 0.00 | 0.00 | 0.00 | 55 | 1017.0 |
| 20260506193038 | 15 | 47 | 8.0 | 11.3 | 0.00 | 0.00 | 0.00 | 56 | 1017.1 |
| 20260506192535 | 15 | 8 | 9.7 | 12.9 | 0.00 | 0.00 | 0.00 | 56 | 1017.0 |
| 20260506192031 | 15 | 13 | 6.4 | 14.5 | 0.00 | 0.00 | 0.00 | 58 | 1017.2 |
| 20260506191528 | 15 | 58 | 8.0 | 20.9 | 0.00 | 0.00 | 0.00 | 57 | 1017.4 |
| 20260506191023 | 15 | 45 | 6.4 | 20.9 | 0.00 | 0.00 | 0.00 | 57 | 1017.6 |
| 20260506190521 | 15 | 42 | 6.4 | 11.3 | 0.00 | 0.00 | 0.00 | 58 | 1017.4 |
| 20260506190019 | 15 | 88 | 11.3 | 16.1 | 0.00 | 0.00 | 0.00 | 57 | 1017.6 |
| 20260506185515 | 15 | 74 | 6.4 | 12.9 | 0.00 | 0.00 | 0.00 | 58 | 1017.5 |
| 20260506185012 | 15 | 17 | 4.8 | 14.5 | 0.00 | 0.00 | 0.00 | 58 | 1017.6 |
| 20260506184509 | 15 | 50 | 1.6 | 9.7 | 0.00 | 0.00 | 0.00 | 58 | 1017.2 |
| 20260506184006 | 15 | 40 | 6.4 | 11.3 | 0.00 | 0.00 | 0.00 | 57 | 1017.6 |
| 20260506183501 | 15 | 74 | 3.2 | 9.7 | 0.00 | 0.00 | 0.00 | 58 | 1017.5 |
| 20260506182959 | 15 | 42 | 8.0 | 14.5 | 0.00 | 0.00 | 0.00 | 57 | 1017.7 |
| 20260506182456 | 15 | 59 | 6.4 | 16.1 | 0.00 | 0.00 | 0.00 | 58 | 1017.8 |
| 20260506181953 | 15 | 3 | 3.2 | 9.7 | 0.00 | 0.00 | 0.00 | 59 | 1017.8 |
| 20260506181451 | 15 | 77 | 9.7 | 11.3 | 0.00 | 0.00 | 0.00 | 57 | 1017.6 |
| 20260506180947 | 14 | 353 | 11.3 | 16.1 | 0.00 | 0.00 | 0.00 | 59 | 1017.9 |
| 20260506180444 | 14 | 57 | 9.7 | 14.5 | 0.00 | 0.00 | 0.00 | 58 | 1017.9 |
| 20260506175941 | 15 | 36 | 11.3 | 25.7 | 0.00 | 0.00 | 0.00 | 58 | 1017.9 |
| 20260506175437 | 14 | 45 | 6.4 | 14.5 | 0.00 | 0.00 | 0.00 | 59 | 1017.8 |
| 20260506174934 | 15 | 11 | 3.2 | 11.3 | 0.00 | 0.00 | 0.00 | 59 | 1017.9 |
| 20260506174432 | 15 | 6 | 14.5 | 22.5 | 0.00 | 0.00 | 0.00 | 57 | 1017.9 |
| 20260506173928 | 15 | 53 | 0.0 | 11.3 | 0.00 | 0.00 | 0.00 | 57 | 1018.1 |
| 20260506173426 | 14 | 46 | 9.7 | 17.7 | 0.00 | 0.00 | 0.00 | 59 | 1018.1 |
| 20260506172923 | 15 | 49 | 6.4 | 11.3 | 0.00 | 0.00 | 0.00 | 57 | 1017.9 |
| 20260506172420 | 15 | 89 | 9.7 | 14.5 | 0.00 | 0.00 | 0.00 | 56 | 1017.9 |
| 20260506171917 | 14 | 52 | 4.8 | 12.9 | 0.00 | 0.00 | 0.00 | 58 | 1018.1 |
| 20260506171414 | 15 | 30 | 14.5 | 17.7 | 0.00 | 0.00 | 0.00 | 58 | 1018.2 |
| 20260506170912 | 14 | 25 | 1.6 | 17.7 | 0.00 | 0.00 | 0.00 | 59 | 1018.4 |
| 20260506170407 | 14 | 58 | 4.8 | 9.7 | 0.00 | 0.00 | 0.00 | 58 | 1018.1 |
| 20260506165907 | 14 | 50 | 4.8 | 20.9 | 0.00 | 0.00 | 0.00 | 60 | 1018.4 |
| 20260506165404 | 15 | 4 | 8.0 | 12.9 | 0.00 | 0.00 | 0.00 | 59 | 1017.9 |
| 20260506164901 | 13 | 358 | 4.8 | 12.9 | 0.00 | 0.00 | 0.00 | 61 | 1018.2 |
| 20260506164357 | 14 | 132 | 6.4 | 17.7 | 0.00 | 0.00 | 0.00 | 59 | 1018.1 |
| 20260506163856 | 13 | 57 | 6.4 | 16.1 | 0.00 | 0.00 | 0.00 | 63 | 1018.2 |
| 20260506163355 | 13 | 40 | 11.3 | 20.9 | 0.00 | 0.00 | 0.00 | 62 | 1018.5 |
| 20260506162850 | 13 | 23 | 9.7 | 17.7 | 0.00 | 0.00 | 0.00 | 62 | 1018.3 |
| 20260506162349 | 13 | 21 | 9.7 | 16.1 | 0.00 | 0.00 | 0.00 | 61 | 1018.3 |
| 20260506161846 | 13 | 10 | 4.8 | 14.5 | 0.00 | 0.00 | 0.00 | 62 | 1018.2 |
| 20260506161343 | 13 | 48 | 4.8 | 16.1 | 0.00 | 0.00 | 0.00 | 63 | 1018.1 |
| 20260506160841 | 12 | 46 | 4.8 | 24.1 | 0.00 | 0.00 | 0.00 | 65 | 1018.0 |
| 20260506160338 | 12 | 59 | 6.4 | 17.7 | 0.00 | 0.00 | 0.00 | 64 | 1018.0 |
| 20260506155836 | 13 | 22 | 6.4 | 16.1 | 0.00 | 0.00 | 0.00 | 65 | 1018.0 |
| 20260506155332 | 12 | 70 | 4.8 | 14.5 | 0.00 | 0.00 | 0.00 | 65 | 1018.2 |
| 20260506153444 | 12 | 54 | 1.6 | 16.1 | 0.00 | 0.00 | 0.00 | 67 | 1017.8 |
| 20260506152942 | 12 | 47 | 16.1 | 20.9 | 0.00 | 0.00 | 0.00 | 65 | 1018.0 |
| 20260506152439 | 12 | 26 | 14.5 | 20.9 | 0.00 | 0.00 | 0.00 | 66 | 1018.0 |
| 20260506151937 | 12 | 47 | 14.5 | 17.7 | 0.00 | 0.00 | 0.00 | 66 | 1018.0 |
| 20260506151434 | 11 | 54 | 8.0 | 24.1 | 0.00 | 0.00 | 0.00 | 66 | 1018.0 |
| 20260506150932 | 11 | 41 | 14.5 | 20.9 | 0.00 | 0.00 | 0.00 | 66 | 1017.9 |
| 20260506150428 | 11 | 40 | 14.5 | 17.7 | 0.00 | 0.00 | 0.00 | 67 | 1018.0 |
| 20260506145925 | 11 | 46 | 9.7 | 16.1 | 0.00 | 0.00 | 0.00 | 68 | 1017.9 |
| 20260506145421 | 11 | 50 | 3.2 | 14.5 | 0.00 | 0.00 | 0.00 | 70 | 1017.8 |
| 20260506144919 | 11 | 31 | 4.8 | 17.7 | 0.00 | 0.00 | 0.00 | 71 | 1017.6 |
| 20260506144415 | 10 | 68 | 12.9 | 20.9 | 0.00 | 0.00 | 0.00 | 71 | 1017.5 |
| 20260506143913 | 10 | 40 | 12.9 | 25.7 | 0.00 | 0.00 | 0.00 | 71 | 1017.5 |
| 20260506143410 | 10 | 10 | 8.0 | 17.7 | 0.00 | 0.00 | 0.00 | 74 | 1017.4 |
| 20260506142908 | 10 | 346 | 11.3 | 14.5 | 0.00 | 0.00 | 0.00 | 74 | 1017.6 |
| 20260506142406 | 10 | 67 | 11.3 | 22.5 | 0.00 | 0.00 | 0.00 | 75 | 1017.6 |
| 20260506141904 | 10 | 40 | 8.0 | 14.5 | 0.00 | 0.00 | 0.00 | 78 | 1017.4 |
| 20260506141402 | 9 | 42 | 14.5 | 22.5 | 0.00 | 0.00 | 0.00 | 79 | 1017.1 |
| 20260506140900 | 9 | 47 | 11.3 | 17.7 | 0.00 | 0.00 | 0.00 | 79 | 1017.5 |
| 20260506140356 | 9 | 43 | 6.4 | 22.5 | 0.00 | 0.00 | 0.00 | 80 | 1017.4 |
| 20260506135853 | 9 | 45 | 16.1 | 20.9 | 0.00 | 0.00 | 0.00 | 80 | 1017.4 |
| 20260506135350 | 9 | 48 | 9.7 | 12.9 | 0.00 | 0.00 | 0.00 | 81 | 1017.6 |
| 20260506134846 | 9 | 34 | 11.3 | 20.9 | 0.00 | 0.00 | 0.00 | 81 | 1017.5 |
| 20260506134342 | 9 | 46 | 6.4 | 16.1 | 0.00 | 0.00 | 0.00 | 82 | 1017.6 |
| 20260506133840 | 8 | 25 | 11.3 | 17.7 | 0.00 | 0.00 | 0.00 | 83 | 1017.7 |
| 20260506133337 | 8 | 8 | 8.0 | 9.7 | 0.00 | 0.00 | 0.00 | 84 | 1017.8 |
| 20260506132833 | 8 | 339 | 6.4 | 11.3 | 0.00 | 0.00 | 0.00 | 84 | 1017.7 |
| 20260506132331 | 8 | 16 | 9.7 | 16.1 | 0.00 | 0.00 | 0.00 | 84 | 1017.7 |
| 20260506131828 | 8 | 335 | 6.4 | 11.3 | 0.00 | 0.00 | 0.00 | 85 | 1017.4 |
| 20260506131324 | 8 | 15 | 4.8 | 24.1 | 0.00 | 0.00 | 0.00 | 85 | 1017.2 |
| 20260506130822 | 8 | 40 | 6.4 | 11.3 | 0.00 | 0.00 | 0.00 | 85 | 1017.5 |
| 20260506130318 | 8 | 33 | 11.3 | 17.7 | 0.00 | 0.00 | 0.00 | 85 | 1017.5 |
| 20260506125816 | 8 | 31 | 14.5 | 22.5 | 0.00 | 0.00 | 0.00 | 85 | 1017.5 |
| 20260506125314 | 8 | 34 | 9.7 | 17.7 | 0.00 | 0.00 | 0.00 | 85 | 1017.0 |
| 20260506124813 | 8 | 39 | 6.4 | 16.1 | 0.00 | 0.00 | 0.00 | 86 | 1017.1 |
| 20260506124309 | 8 | 19 | 8.0 | 16.1 | 0.00 | 0.00 | 0.00 | 85 | 1016.9 |
| 20260506123807 | 8 | 39 | 6.4 | 14.5 | 0.00 | 0.00 | 0.00 | 86 | 1016.9 |
| 20260506123305 | 8 | 3 | 6.4 | 17.7 | 0.00 | 0.00 | 0.00 | 85 | 1016.9 |
| 20260506122801 | 8 | 45 | 8.0 | 14.5 | 0.00 | 0.00 | 0.00 | 85 | 1016.8 |
| 20260506122259 | 8 | 26 | 9.7 | 16.1 | 0.00 | 0.00 | 0.00 | 85 | 1016.7 |
| 20260506121757 | 8 | 52 | 4.8 | 14.5 | 0.00 | 0.00 | 0.00 | 86 | 1016.9 |
| 20260506121253 | 8 | 24 | 4.8 | 6.4 | 0.00 | 0.00 | 0.00 | 86 | 1016.4 |
| 20260506120751 | 8 | 32 | 6.4 | 12.9 | 0.00 | 0.00 | 0.00 | 86 | 1016.2 |
| 20260506120249 | 8 | 14 | 8.0 | 11.3 | 0.00 | 0.00 | 0.00 | 86 | 1016.3 |
| 20260506115746 | 8 | 35 | 6.4 | 11.3 | 0.00 | 0.00 | 0.00 | 86 | 1016.2 |
| 20260506115244 | 8 | 46 | 6.4 | 12.9 | 0.00 | 0.00 | 0.00 | 86 | 1016.2 |
| 20260506114741 | 8 | 29 | 6.4 | 14.5 | 0.00 | 0.00 | 0.00 | 86 | 1016.2 |
| 20260506114239 | 8 | 9 | 9.7 | 12.9 | 0.00 | 0.00 | 0.00 | 86 | 1016.0 |
| 20260506113737 | 8 | 26 | 9.7 | 11.3 | 0.00 | 0.00 | 0.00 | 85 | 1016.2 |
| 20260506113234 | 8 | 22 | 4.8 | 14.5 | 0.00 | 0.00 | 0.00 | 85 | 1016.1 |
| 20260506112730 | 8 | 18 | 6.4 | 11.3 | 0.00 | 0.00 | 0.00 | 85 | 1016.2 |
| 20260506112228 | 8 | 342 | 3.2 | 12.9 | 0.00 | 0.00 | 0.00 | 85 | 1015.8 |
| 20260506111726 | 8 | 49 | 6.4 | 9.7 | 0.00 | 0.00 | 0.00 | 85 | 1015.8 |
| 20260506111224 | 8 | 2 | 4.8 | 6.4 | 0.00 | 0.00 | 0.00 | 85 | 1015.9 |
| 20260506110721 | 8 | 27 | 8.0 | 14.5 | 0.00 | 0.00 | 0.00 | 85 | 1015.8 |
| 20260506110218 | 8 | 351 | 4.8 | 9.7 | 0.00 | 0.00 | 0.00 | 85 | 1015.7 |
| 20260506105714 | 8 | 7 | 4.8 | 9.7 | 0.00 | 0.00 | 0.00 | 85 | 1016.0 |
| 20260506105211 | 8 | 26 | 4.8 | 4.8 | 0.00 | 0.00 | 0.00 | 85 | 1016.4 |
| 20260506104709 | 8 | 345 | 6.4 | 9.7 | 0.00 | 0.00 | 0.00 | 84 | 1016.6 |
| 20260506104207 | 8 | 41 | 4.8 | 9.7 | 0.00 | 0.00 | 0.00 | 84 | 1016.8 |
| 20260506103703 | 8 | 345 | 3.2 | 6.4 | 0.00 | 0.00 | 0.00 | 84 | 1016.9 |
| 20260506103200 | 8 | 343 | 1.6 | 9.7 | 0.00 | 0.00 | 0.00 | 84 | 1016.3 |
| 20260506102659 | 8 | 26 | 3.2 | 4.8 | 0.00 | 0.00 | 0.00 | 84 | 1016.4 |
| 20260506102156 | 8 | 26 | 3.2 | 4.8 | 0.00 | 0.00 | 0.00 | 84 | 1016.5 |
| 20260506101653 | 8 | 318 | 3.2 | 4.8 | 0.00 | 0.00 | 0.00 | 83 | 1016.3 |
| 20260506101149 | 8 | 44 | 6.4 | 6.4 | 0.00 | 0.00 | 0.00 | 83 | 1016.3 |
| 20260506100648 | 8 | 17 | 3.2 | 6.4 | 0.00 | 0.00 | 0.00 | 83 | 1016.1 |
| 20260506100145 | 8 | 22 | 1.6 | 9.7 | 0.00 | 0.00 | 0.00 | 83 | 1016.0 |
| 20260506095644 | 8 | 25 | 3.2 | 9.7 | 0.00 | 0.00 | 0.00 | 83 | 1015.9 |
| 20260506095140 | 8 | 351 | 4.8 | 11.3 | 0.00 | 0.00 | 0.00 | 83 | 1015.9 |
| 20260506094638 | 8 | 47 | 3.2 | 6.4 | 0.00 | 0.00 | 0.00 | 83 | 1015.6 |
| 20260506094135 | 8 | 43 | 6.4 | 11.3 | 0.00 | 0.00 | 0.00 | 83 | 1015.5 |
| 20260506093634 | 8 | 45 | 4.8 | 9.7 | 0.00 | 0.00 | 0.00 | 83 | 1015.5 |
| 20260506093130 | 8 | 3 | 4.8 | 4.8 | 0.00 | 0.00 | 0.00 | 83 | 1015.3 |
| 20260506092628 | 8 | 16 | 1.6 | 4.8 | 0.00 | 0.00 | 0.00 | 83 | 1015.1 |
| 20260506092125 | 8 | 51 | 4.8 | 6.4 | 0.00 | 0.00 | 0.00 | 83 | 1015.0 |
| 20260506091623 | 8 | 38 | 4.8 | 6.4 | 0.00 | 0.00 | 0.00 | 82 | 1015.0 |
| 20260506091120 | 8 | 340 | 6.4 | 11.3 | 0.00 | 0.00 | 0.00 | 82 | 1015.1 |
| 20260506090619 | 8 | 7 | 1.6 | 6.4 | 0.00 | 0.00 | 0.00 | 82 | 1015.1 |
| 20260506090114 | 8 | 15 | 3.2 | 6.4 | 0.00 | 0.00 | 0.00 | 81 | 1015.0 |
| 20260506085611 | 8 | 37 | 4.8 | 6.4 | 0.00 | 0.00 | 0.00 | 81 | 1015.2 |
| 20260506085108 | 8 | 20 | 4.8 | 9.7 | 0.00 | 0.00 | 0.00 | 81 | 1015.0 |
| 20260506084604 | 8 | 26 | 3.2 | 4.8 | 0.00 | 0.00 | 0.00 | 81 | 1015.1 |
| 20260506084101 | 8 | 27 | 1.6 | 12.9 | 0.00 | 0.00 | 0.00 | 81 | 1014.8 |
| 20260506083558 | 8 | 322 | 8.0 | 11.3 | 0.00 | 0.00 | 0.00 | 81 | 1014.5 |
| 20260506083055 | 8 | 50 | 3.2 | 9.7 | 0.00 | 0.00 | 0.00 | 80 | 1014.6 |
| 20260506082552 | 8 | 328 | 11.3 | 14.5 | 0.00 | 0.00 | 0.00 | 80 | 1014.0 |
| 20260506082048 | 8 | 339 | 6.4 | 11.3 | 0.00 | 0.00 | 0.00 | 79 | 1014.2 |
| 20260506081546 | 8 | 337 | 9.7 | 14.5 | 0.00 | 0.00 | 0.00 | 79 | 1014.0 |
| 20260506081043 | 8 | 340 | 6.4 | 14.5 | 0.00 | 0.00 | 0.00 | 79 | 1014.2 |
| 20260506080541 | 8 | 338 | 6.4 | 11.3 | 0.00 | 0.00 | 0.00 | 79 | 1014.1 |
| 20260506073524 | 8 | 48 | 4.8 | 12.9 | 0.00 | 0.00 | 0.00 | 78 | 1013.7 |
| 20260506073021 | 8 | 47 | 4.8 | 11.3 | 0.00 | 0.00 | 0.00 | 78 | 1013.6 |
| 20260506072518 | 8 | 26 | 4.8 | 6.4 | 0.00 | 0.00 | 0.00 | 78 | 1013.7 |
| 20260506072016 | 8 | 28 | 4.8 | 11.3 | 0.00 | 0.00 | 0.00 | 78 | 1013.5 |
| 20260506071514 | 8 | 14 | 9.7 | 12.9 | 0.00 | 0.00 | 0.00 | 78 | 1013.5 |
| 20260506071011 | 8 | 43 | 4.8 | 14.5 | 0.00 | 0.00 | 0.00 | 78 | 1013.4 |
| 20260506070508 | 8 | 51 | 6.4 | 14.5 | 0.00 | 0.00 | 0.00 | 77 | 1013.6 |
| 20260506062445 | 8 | 7 | 4.8 | 11.3 | 0.00 | 0.00 | 0.00 | 78 | 1013.6 |
| 20260506061941 | 8 | 5 | 8.0 | 9.7 | 0.00 | 0.00 | 0.00 | 78 | 1013.4 |
| 20260506061437 | 8 | 33 | 3.2 | 9.7 | 0.00 | 0.00 | 0.00 | 78 | 1013.5 |
| 20260506060936 | 8 | 24 | 9.7 | 12.9 | 0.00 | 0.00 | 0.00 | 77 | 1013.6 |